Caldwell, NJ

5:22 PM EDT on July 22, 2017 (GMT -0400)
Essex County

Weather History for KCDW - November, 2014

Change the Weather History Date:

Thursday, November 20, 2014

  Actual Average Record
Temperature  
Mean Temperature 32 °F -  
Max Temperature 44 °F 51 °F 70 °F (1953)
Min Temperature 21 °F 31 °F 14 °F (1984)
Degree Days  
Heating Degree Days 32    
Moisture  
Dew Point 15 °F    
Average Humidity 50    
Maximum Humidity 72    
Minimum Humidity 33    
Precipitation  
Precipitation 0.00 in - - ()
Sea Level Pressure  
Sea Level Pressure 29.97 in    
Wind  
Wind Speed 5 mph (WNW)    
Max Wind Speed 16 mph    
Max Gust Speed 26 mph    
Visibility 10 miles    
Events      
Averages and records for this station are not official NWS values.
T = Trace of Precipitation, MM = Missing Value Source: NWS Daily Summary

Daily Weather History Graph

Daily Weather History Graph

Search for Another Location

Airport or City:

Trip Planner

Search our weather history database for the weather conditions in past years. The results will help you decide how hot, cold, wet, or windy it might be!

Date:

Astronomy

Nov. 20, 2014 Rise Set
Actual Time 6:50 AM EST 4:35 PM EST
Civil Twilight 6:20 AM EST 5:04 PM EST
Nautical Twilight 5:46 AM EST 5:38 PM EST
Astronomical Twilight 5:14 AM EST 6:10 PM EST
Moon 4:41 AM EST (11/20) 3:38 PM EST (11/20)
Length of Visible Light 10h 44m
Length of Day
9h 44m
Waning Crescent, 4% of the Moon is Illuminated
Nov 20
Waning Crescent
Nov 22
New
Nov 29
First Quarter
Dec 6
Full
Dec 14
Last Quarter

Hourly Weather History & Observations

Time (EST) Temp. Windchill Dew Point Humidity Pressure Visibility Wind Dir Wind Speed Gust Speed Precip Events Conditions
12:53 AM 27.0 °F 23.0 °F 12.9 °F 56% 30.05 in 10.0 mi NNW 3.5 mph - N/A   Partly Cloudy
1:53 AM 25.0 °F - 12.9 °F 60% 30.04 in 10.0 mi Calm Calm - N/A   Clear
2:53 AM 23.0 °F - 12.9 °F 65% 30.03 in 10.0 mi Calm Calm - N/A   Clear
3:53 AM 21.9 °F - 14.0 °F 72% 30.01 in 10.0 mi Calm Calm - N/A   Clear
4:53 AM 23.0 °F - 15.1 °F 72% 30.00 in 10.0 mi Calm Calm - N/A   Overcast
5:53 AM 25.0 °F - 17.1 °F 72% 29.99 in 10.0 mi Calm Calm - N/A   Overcast
6:53 AM 25.0 °F - 17.1 °F 72% 29.98 in 10.0 mi Calm Calm - N/A   Overcast
7:53 AM 27.0 °F - 17.1 °F 66% 29.98 in 10.0 mi Calm Calm - N/A   Mostly Cloudy
8:53 AM 28.9 °F - 19.0 °F 67% 29.97 in 10.0 mi Calm Calm - N/A   Mostly Cloudy
9:53 AM 34.0 °F 29.8 °F 18.0 °F 52% 29.97 in 10.0 mi Variable 4.6 mph - N/A   Partly Cloudy
11:53 AM 41.0 °F 35.8 °F 19.0 °F 41% 29.92 in 10.0 mi West 8.1 mph - N/A   Partly Cloudy
12:53 PM 43.0 °F 37.2 °F 21.0 °F 42% 29.88 in 10.0 mi West 10.4 mph 20.7 mph N/A   Partly Cloudy
1:53 PM 44.1 °F 38.6 °F 21.0 °F 40% 29.87 in 10.0 mi West 10.4 mph 20.7 mph N/A   Scattered Clouds
2:53 PM 44.1 °F 38.6 °F 17.1 °F 34% 29.87 in 10.0 mi West 10.4 mph 26.5 mph N/A   Clear
3:53 PM 43.0 °F 36.8 °F 18.0 °F 37% 29.88 in 10.0 mi WSW 11.5 mph 20.7 mph N/A   Clear
4:53 PM 41.0 °F 33.1 °F 15.1 °F 35% 29.90 in 10.0 mi WNW 15.0 mph 21.9 mph N/A   Clear
5:53 PM 39.0 °F 32.8 °F 12.0 °F 33% 29.94 in 10.0 mi West 9.2 mph 16.1 mph N/A   Clear
6:53 PM 37.0 °F 27.7 °F 10.9 °F 34% 29.96 in 10.0 mi West 16.1 mph 23.0 mph N/A   Clear
7:53 PM 35.1 °F 27.4 °F 10.0 °F 35% 29.98 in 10.0 mi WNW 10.4 mph 21.9 mph N/A   Clear
8:53 PM 33.1 °F 24.4 °F 8.1 °F 35% 30.00 in 10.0 mi WNW 11.5 mph - N/A   Clear
9:53 PM 30.9 °F 21.2 °F 8.1 °F 38% 30.03 in 10.0 mi WNW 12.7 mph 19.6 mph N/A   Clear
10:53 PM 30.0 °F 20.5 °F 6.1 °F 36% 30.04 in 10.0 mi WNW 11.5 mph - N/A   Clear